Year,Month,Day,Hour,Minute,Value (Times are PST for temperature in C)
2010,08,19,00,00,15.70
2010,08,19,00,01,15.70
2010,08,19,00,02,15.70
2010,08,19,00,03,15.70
2010,08,19,00,04,15.60
2010,08,19,00,05,15.60
2010,08,19,00,06,15.60
2010,08,19,00,07,15.60
2010,08,19,00,08,15.60
2010,08,19,00,09,15.60
2010,08,19,00,10,15.50
2010,08,19,00,11,15.50
2010,08,19,00,12,15.50
2010,08,19,00,13,15.40
2010,08,19,00,14,15.40
2010,08,19,00,15,15.40
2010,08,19,00,16,15.40
2010,08,19,00,17,15.40
2010,08,19,00,18,15.40
2010,08,19,00,19,15.40
2010,08,19,00,20,15.40
2010,08,19,00,21,15.40
2010,08,19,00,22,15.40
2010,08,19,00,23,15.30
2010,08,19,00,24,15.30
2010,08,19,00,25,15.30
2010,08,19,00,26,15.30
2010,08,19,00,27,15.30
2010,08,19,00,28,15.30
2010,08,19,00,29,15.30
2010,08,19,00,30,15.30
2010,08,19,00,31,15.30
2010,08,19,00,32,15.30
2010,08,19,00,33,15.20
2010,08,19,00,34,15.20
2010,08,19,00,35,15.20
2010,08,19,00,36,15.20
2010,08,19,00,37,15.20
2010,08,19,00,38,15.20
2010,08,19,00,39,15.20
2010,08,19,00,40,15.10
2010,08,19,00,41,15.10
2010,08,19,00,42,15.10
2010,08,19,00,43,15.10
2010,08,19,00,44,15.00
2010,08,19,00,45,15.00
2010,08,19,00,46,15.00
2010,08,19,00,47,15.00
2010,08,19,00,48,15.00
2010,08,19,00,49,15.00
2010,08,19,00,50,15.00
2010,08,19,00,51,15.00
2010,08,19,00,52,15.00
2010,08,19,00,53,15.00
2010,08,19,00,54,15.00
2010,08,19,00,55,15.00
2010,08,19,00,56,15.00
2010,08,19,00,57,15.00
2010,08,19,00,58,14.90
2010,08,19,00,59,14.90
2010,08,19,01,00,14.80
2010,08,19,01,01,14.80
2010,08,19,01,02,14.80
2010,08,19,01,03,14.80
2010,08,19,01,04,14.70
2010,08,19,01,05,14.70
2010,08,19,01,06,14.70
2010,08,19,01,07,14.70
2010,08,19,01,08,14.70
2010,08,19,01,09,14.70
2010,08,19,01,10,14.70
2010,08,19,01,11,14.70
2010,08,19,01,12,14.60
2010,08,19,01,13,14.60
2010,08,19,01,14,14.60
2010,08,19,01,15,14.60
2010,08,19,01,16,14.60
2010,08,19,01,17,14.60
2010,08,19,01,18,14.50
2010,08,19,01,19,14.50
2010,08,19,01,20,14.50
2010,08,19,01,21,14.50
2010,08,19,01,22,14.40
2010,08,19,01,23,14.40
2010,08,19,01,24,14.40
2010,08,19,01,25,14.40
2010,08,19,01,26,14.40
2010,08,19,01,27,14.40
2010,08,19,01,28,14.40
2010,08,19,01,29,14.30
2010,08,19,01,30,14.30
2010,08,19,01,31,14.30
2010,08,19,01,32,14.30
2010,08,19,01,33,14.30
2010,08,19,01,34,14.30
2010,08,19,01,35,14.30
2010,08,19,01,36,14.30
2010,08,19,01,37,14.30
2010,08,19,01,38,14.30
2010,08,19,01,39,14.30
2010,08,19,01,40,14.30
2010,08,19,01,41,14.30
2010,08,19,01,42,14.30
2010,08,19,01,43,14.30
2010,08,19,01,44,14.30
2010,08,19,01,45,14.40
2010,08,19,01,46,14.30
2010,08,19,01,47,14.30
2010,08,19,01,48,14.30
2010,08,19,01,49,14.30
2010,08,19,01,50,14.20
2010,08,19,01,51,14.20
2010,08,19,01,52,14.20
2010,08,19,01,53,14.20
2010,08,19,01,54,14.20
2010,08,19,01,55,14.10
2010,08,19,01,56,14.10
2010,08,19,01,57,14.10
2010,08,19,01,58,14.10
2010,08,19,01,59,14.10
2010,08,19,02,00,14.10
2010,08,19,02,01,14.10
2010,08,19,02,02,14.10
2010,08,19,02,03,14.10
2010,08,19,02,04,14.10
2010,08,19,02,05,14.10
2010,08,19,02,06,14.10
2010,08,19,02,07,14.10
2010,08,19,02,08,14.10
2010,08,19,02,09,14.10
2010,08,19,02,10,14.10
2010,08,19,02,11,14.10
2010,08,19,02,12,14.10
2010,08,19,02,13,14.10
2010,08,19,02,14,14.10
2010,08,19,02,15,14.10
2010,08,19,02,16,14.00
2010,08,19,02,17,14.00
2010,08,19,02,18,14.00
2010,08,19,02,19,14.00
2010,08,19,02,20,14.00
2010,08,19,02,21,14.00
2010,08,19,02,22,14.00
2010,08,19,02,23,14.00
2010,08,19,02,24,14.00
2010,08,19,02,25,14.00
2010,08,19,02,26,14.00
2010,08,19,02,27,14.00
2010,08,19,02,28,14.00
2010,08,19,02,29,14.00
2010,08,19,02,30,14.00
2010,08,19,02,31,13.90
2010,08,19,02,32,13.90
2010,08,19,02,33,13.90
2010,08,19,02,34,13.90
2010,08,19,02,35,13.90
2010,08,19,02,36,13.90
2010,08,19,02,37,13.90
2010,08,19,02,38,13.90
2010,08,19,02,39,13.90
2010,08,19,02,40,13.90
2010,08,19,02,41,13.90
2010,08,19,02,42,13.90
2010,08,19,02,43,13.90
2010,08,19,02,44,13.90
2010,08,19,02,45,13.90
2010,08,19,02,46,13.90
2010,08,19,02,47,13.90
2010,08,19,02,48,13.90
2010,08,19,02,49,13.90
2010,08,19,02,50,13.90
2010,08,19,02,51,13.90
2010,08,19,02,52,13.90
2010,08,19,02,53,13.90
2010,08,19,02,54,13.90
2010,08,19,02,55,13.90
2010,08,19,02,56,13.90
2010,08,19,02,57,13.90
2010,08,19,02,58,13.90
2010,08,19,02,59,13.80
2010,08,19,03,00,13.80
2010,08,19,03,01,13.80
2010,08,19,03,02,13.80
2010,08,19,03,03,13.80
2010,08,19,03,04,13.80
2010,08,19,03,05,13.80
2010,08,19,03,06,13.80
2010,08,19,03,07,13.80
2010,08,19,03,08,13.80
2010,08,19,03,09,13.80
2010,08,19,03,10,13.80
2010,08,19,03,11,13.80
2010,08,19,03,12,13.80
2010,08,19,03,13,13.80
2010,08,19,03,14,13.80
2010,08,19,03,15,13.80
2010,08,19,03,16,13.80
2010,08,19,03,17,13.80
2010,08,19,03,18,13.80
2010,08,19,03,19,13.90
2010,08,19,03,20,13.90
2010,08,19,03,21,13.90
2010,08,19,03,22,13.90
2010,08,19,03,23,13.90
2010,08,19,03,24,13.90
2010,08,19,03,25,13.90
2010,08,19,03,26,13.90
2010,08,19,03,27,13.90
2010,08,19,03,28,13.90
2010,08,19,03,29,13.90
2010,08,19,03,30,13.90
2010,08,19,03,31,13.90
2010,08,19,03,32,13.90
2010,08,19,03,33,14.00
2010,08,19,03,34,14.00
2010,08,19,03,35,14.00
2010,08,19,03,36,14.00
2010,08,19,03,37,14.00
2010,08,19,03,38,14.00
2010,08,19,03,39,14.00
2010,08,19,03,40,14.00
2010,08,19,03,41,14.00
2010,08,19,03,42,14.00
2010,08,19,03,43,14.00
2010,08,19,03,44,14.10
2010,08,19,03,45,14.00
2010,08,19,03,46,14.00
2010,08,19,03,47,14.00
2010,08,19,03,48,14.00
2010,08,19,03,49,14.00
2010,08,19,03,50,14.00
2010,08,19,03,51,14.00
2010,08,19,03,52,14.00
2010,08,19,03,53,14.00
2010,08,19,03,54,14.00
2010,08,19,03,55,14.00
2010,08,19,03,56,14.00
2010,08,19,03,57,14.00
2010,08,19,03,58,14.00
2010,08,19,03,59,14.00
2010,08,19,04,00,14.00
2010,08,19,04,01,14.00
2010,08,19,04,02,14.00
2010,08,19,04,03,14.00
2010,08,19,04,04,14.00
2010,08,19,04,05,14.00
2010,08,19,04,06,14.00
2010,08,19,04,07,14.10
2010,08,19,04,08,14.10
2010,08,19,04,09,14.10
2010,08,19,04,10,14.10
2010,08,19,04,11,14.10
2010,08,19,04,12,14.10
2010,08,19,04,13,14.10
2010,08,19,04,14,14.10
2010,08,19,04,15,14.10
2010,08,19,04,16,14.10
2010,08,19,04,17,14.10
2010,08,19,04,18,14.10
2010,08,19,04,19,14.10
2010,08,19,04,20,14.10
2010,08,19,04,21,14.10
2010,08,19,04,22,14.10
2010,08,19,04,23,14.10
2010,08,19,04,24,14.10
2010,08,19,04,25,14.10
2010,08,19,04,26,14.10
2010,08,19,04,27,14.10
2010,08,19,04,28,14.10
2010,08,19,04,29,14.10
2010,08,19,04,30,14.10
2010,08,19,04,31,14.10
2010,08,19,04,32,14.10
2010,08,19,04,33,14.10
2010,08,19,04,34,14.10
2010,08,19,04,35,14.10
2010,08,19,04,36,14.10
2010,08,19,04,37,14.10
2010,08,19,04,38,14.10
2010,08,19,04,39,14.10
2010,08,19,04,40,14.10
2010,08,19,04,41,14.10
2010,08,19,04,42,14.20
2010,08,19,04,43,14.10
2010,08,19,04,44,14.10
2010,08,19,04,45,14.10
2010,08,19,04,46,14.10
2010,08,19,04,47,14.10
2010,08,19,04,48,14.10
2010,08,19,04,49,14.10
2010,08,19,04,50,14.10
2010,08,19,04,51,14.10
2010,08,19,04,52,14.10
2010,08,19,04,53,14.10
2010,08,19,04,54,14.10
2010,08,19,04,55,14.10
2010,08,19,04,56,14.10
2010,08,19,04,57,14.10
2010,08,19,04,58,14.10
2010,08,19,04,59,14.10
2010,08,19,05,00,14.10
2010,08,19,05,01,14.10
2010,08,19,05,02,14.10
2010,08,19,05,03,14.10
2010,08,19,05,04,14.10
2010,08,19,05,05,14.10
2010,08,19,05,06,14.10
2010,08,19,05,07,14.10
2010,08,19,05,08,14.10
2010,08,19,05,09,14.10
2010,08,19,05,10,14.10
2010,08,19,05,11,14.20
2010,08,19,05,12,14.20
2010,08,19,05,13,14.20
2010,08,19,05,14,14.20
2010,08,19,05,15,14.20
2010,08,19,05,16,14.20
2010,08,19,05,17,14.20
2010,08,19,05,18,14.20
2010,08,19,05,19,14.20
2010,08,19,05,20,14.20
2010,08,19,05,21,14.30
2010,08,19,05,22,14.30
2010,08,19,05,23,14.30
2010,08,19,05,24,14.30
2010,08,19,05,25,14.30
2010,08,19,05,26,14.30
2010,08,19,05,27,14.30
2010,08,19,05,28,14.30
2010,08,19,05,29,14.30
2010,08,19,05,30,14.30
2010,08,19,05,31,14.30
2010,08,19,05,32,14.30
2010,08,19,05,33,14.30
2010,08,19,05,34,14.30
2010,08,19,05,35,14.30
2010,08,19,05,36,14.30
2010,08,19,05,37,14.30
2010,08,19,05,38,14.30
2010,08,19,05,39,14.30
2010,08,19,05,40,14.30
2010,08,19,05,41,14.30
2010,08,19,05,42,14.30
2010,08,19,05,43,14.30
2010,08,19,05,44,14.30
2010,08,19,05,45,14.30
2010,08,19,05,46,14.30
2010,08,19,05,47,14.30
2010,08,19,05,48,14.30
2010,08,19,05,49,14.30
2010,08,19,05,50,14.30
2010,08,19,05,51,14.30
2010,08,19,05,52,14.30
2010,08,19,05,53,14.30
2010,08,19,05,54,14.30
2010,08,19,05,55,14.30
2010,08,19,05,56,14.30
2010,08,19,05,57,14.30
2010,08,19,05,58,14.30
2010,08,19,05,59,14.30
2010,08,19,06,00,14.30
2010,08,19,06,01,14.30
2010,08,19,06,02,14.30
2010,08,19,06,03,14.40
2010,08,19,06,04,14.40
2010,08,19,06,05,14.40
2010,08,19,06,06,14.40
2010,08,19,06,07,14.40
2010,08,19,06,08,14.40
2010,08,19,06,09,14.40
2010,08,19,06,10,14.40
2010,08,19,06,11,14.40
2010,08,19,06,12,14.40
2010,08,19,06,13,14.30
2010,08,19,06,14,14.30
2010,08,19,06,15,14.30
2010,08,19,06,16,14.30
2010,08,19,06,17,14.30
2010,08,19,06,18,14.30
2010,08,19,06,19,14.30
2010,08,19,06,20,14.30
2010,08,19,06,21,14.30
2010,08,19,06,22,14.30
2010,08,19,06,23,14.20
2010,08,19,06,24,14.20
2010,08,19,06,25,14.30
2010,08,19,06,26,14.20
2010,08,19,06,27,14.30
2010,08,19,06,28,14.30
2010,08,19,06,29,14.30
2010,08,19,06,30,14.30
2010,08,19,06,31,14.30
2010,08,19,06,32,14.20
2010,08,19,06,33,14.20
2010,08,19,06,34,14.20
2010,08,19,06,35,14.20
2010,08,19,06,36,14.20
2010,08,19,06,37,14.20
2010,08,19,06,38,14.20
2010,08,19,06,39,14.20
2010,08,19,06,40,14.20
2010,08,19,06,41,14.20
2010,08,19,06,42,14.20
2010,08,19,06,43,14.30
2010,08,19,06,44,14.30
2010,08,19,06,45,14.30
2010,08,19,06,46,14.30
2010,08,19,06,47,14.30
2010,08,19,06,48,14.30
2010,08,19,06,49,14.40
2010,08,19,06,50,14.40
2010,08,19,06,51,14.40
2010,08,19,06,52,14.40
2010,08,19,06,53,14.40
2010,08,19,06,54,14.40
2010,08,19,06,55,14.40
2010,08,19,06,56,14.40
2010,08,19,06,57,14.40
2010,08,19,06,58,14.40
2010,08,19,06,59,14.50
2010,08,19,07,00,14.50
2010,08,19,07,01,14.50
2010,08,19,07,02,14.50
2010,08,19,07,03,14.50
2010,08,19,07,04,14.50
2010,08,19,07,05,14.50
2010,08,19,07,06,14.50
2010,08,19,07,07,14.60
2010,08,19,07,08,14.60
2010,08,19,07,09,14.60
2010,08,19,07,10,14.60
2010,08,19,07,11,14.60
2010,08,19,07,12,14.60
2010,08,19,07,13,14.60
2010,08,19,07,14,14.60
2010,08,19,07,15,14.60
2010,08,19,07,16,14.60
2010,08,19,07,17,14.60
2010,08,19,07,18,14.60
2010,08,19,07,19,14.60
2010,08,19,07,20,14.60
2010,08,19,07,21,14.60
2010,08,19,07,22,14.60
2010,08,19,07,23,14.60
2010,08,19,07,24,14.60
2010,08,19,07,25,14.60
2010,08,19,07,26,14.60
2010,08,19,07,27,14.60
2010,08,19,07,28,14.60
2010,08,19,07,29,14.60
2010,08,19,07,30,14.60
2010,08,19,07,31,14.60
2010,08,19,07,32,14.60
2010,08,19,07,33,14.60
2010,08,19,07,34,14.70
2010,08,19,07,35,14.70
2010,08,19,07,36,14.70
2010,08,19,07,37,14.70
2010,08,19,07,38,14.70
2010,08,19,07,39,14.70
2010,08,19,07,40,14.70
2010,08,19,07,41,14.70
2010,08,19,07,42,14.70
2010,08,19,07,43,14.70
2010,08,19,07,44,14.70
2010,08,19,07,45,14.70
2010,08,19,07,46,14.70
2010,08,19,07,47,14.70
2010,08,19,07,48,14.70
2010,08,19,07,49,14.70
2010,08,19,07,50,14.70
2010,08,19,07,51,14.70
2010,08,19,07,52,14.70
2010,08,19,07,53,14.70
2010,08,19,07,54,14.70
2010,08,19,07,55,14.70
2010,08,19,07,56,14.70
2010,08,19,07,57,14.80
2010,08,19,07,58,14.80
2010,08,19,07,59,14.80
2010,08,19,08,00,14.80
2010,08,19,08,01,14.80
2010,08,19,08,02,14.80
2010,08,19,08,03,14.80
2010,08,19,08,04,14.90
2010,08,19,08,05,14.90
2010,08,19,08,06,15.00
2010,08,19,08,07,15.00
2010,08,19,08,08,15.00
2010,08,19,08,09,15.00
2010,08,19,08,10,15.00
2010,08,19,08,11,15.00
2010,08,19,08,12,15.00
2010,08,19,08,13,15.00
2010,08,19,08,14,15.00
2010,08,19,08,15,15.00
2010,08,19,08,16,15.00
2010,08,19,08,17,15.00
2010,08,19,08,18,15.00
2010,08,19,08,19,15.00
2010,08,19,08,20,15.00
2010,08,19,08,21,15.00
2010,08,19,08,22,15.00
2010,08,19,08,23,15.00
2010,08,19,08,24,15.00
2010,08,19,08,25,15.00
2010,08,19,08,26,15.00
2010,08,19,08,27,15.00
2010,08,19,08,28,15.00
2010,08,19,08,29,15.00
2010,08,19,08,30,15.10
2010,08,19,08,31,15.10
2010,08,19,08,32,15.10
2010,08,19,08,33,15.10
2010,08,19,08,34,15.20
2010,08,19,08,35,15.20
2010,08,19,08,36,15.20
2010,08,19,08,37,15.30
2010,08,19,08,38,15.30
2010,08,19,08,39,15.30
2010,08,19,08,40,15.30
2010,08,19,08,41,15.30
2010,08,19,08,42,15.30
2010,08,19,08,43,15.30
2010,08,19,08,44,15.30
2010,08,19,08,45,15.40
2010,08,19,08,46,15.40
2010,08,19,08,47,15.40
2010,08,19,08,48,15.50
2010,08,19,08,49,15.50
2010,08,19,08,50,15.60
2010,08,19,08,51,15.60
2010,08,19,08,52,15.60
2010,08,19,08,53,15.70
2010,08,19,08,54,15.70
2010,08,19,08,55,15.80
2010,08,19,08,56,15.80
2010,08,19,08,57,15.80
2010,08,19,08,58,15.80
2010,08,19,08,59,15.80
2010,08,19,09,00,15.80
2010,08,19,09,01,15.80
2010,08,19,09,02,15.80
2010,08,19,09,03,15.80
2010,08,19,09,04,15.90
2010,08,19,09,05,15.90
2010,08,19,09,06,15.90
2010,08,19,09,07,15.90
2010,08,19,09,08,15.90
2010,08,19,09,09,15.90
2010,08,19,09,10,15.90
2010,08,19,09,11,15.90
2010,08,19,09,12,15.90
2010,08,19,09,13,15.90
2010,08,19,09,14,15.90
2010,08,19,09,15,15.90
2010,08,19,09,16,15.90
2010,08,19,09,17,15.90
2010,08,19,09,18,15.90
2010,08,19,09,19,16.00
2010,08,19,09,20,16.00
2010,08,19,09,21,16.10
2010,08,19,09,22,16.10
2010,08,19,09,23,16.10
2010,08,19,09,24,16.10
2010,08,19,09,25,16.20
2010,08,19,09,26,16.20
2010,08,19,09,27,16.20
2010,08,19,09,28,16.20
2010,08,19,09,29,16.20
2010,08,19,09,30,16.20
2010,08,19,09,31,16.30
2010,08,19,09,32,16.30
2010,08,19,09,33,16.30
2010,08,19,09,34,16.30
2010,08,19,09,35,16.30
2010,08,19,09,36,16.30
2010,08,19,09,37,16.30
2010,08,19,09,38,16.30
2010,08,19,09,39,16.30
2010,08,19,09,40,16.30
2010,08,19,09,41,16.30
2010,08,19,09,42,16.30
2010,08,19,09,43,16.40
2010,08,19,09,44,16.40
2010,08,19,09,45,16.40
2010,08,19,09,46,16.50
2010,08,19,09,47,16.50
2010,08,19,09,48,16.60
2010,08,19,09,49,16.70
2010,08,19,09,50,16.70
2010,08,19,09,51,16.80
2010,08,19,09,52,16.80
2010,08,19,09,53,16.80
2010,08,19,09,54,16.80
2010,08,19,09,55,16.80
2010,08,19,09,56,16.80
2010,08,19,09,57,16.80
2010,08,19,09,58,16.80
2010,08,19,09,59,16.80
2010,08,19,10,00,16.90
2010,08,19,10,01,17.00
2010,08,19,10,02,17.00
2010,08,19,10,03,17.10
2010,08,19,10,04,17.20
2010,08,19,10,05,17.20
2010,08,19,10,06,17.30
2010,08,19,10,07,17.30
2010,08,19,10,08,17.30
2010,08,19,10,09,17.30
2010,08,19,10,10,17.40
2010,08,19,10,11,17.40
2010,08,19,10,12,17.40
2010,08,19,10,13,17.50
2010,08,19,10,14,17.50
2010,08,19,10,15,17.50
2010,08,19,10,16,17.50
2010,08,19,10,17,17.40
2010,08,19,10,18,17.40
2010,08,19,10,19,17.40
2010,08,19,10,20,17.40
2010,08,19,10,21,17.30
2010,08,19,10,22,17.30
2010,08,19,10,23,17.30
2010,08,19,10,24,17.30
2010,08,19,10,25,17.30
2010,08,19,10,26,17.30
2010,08,19,10,27,17.30
2010,08,19,10,28,17.40
2010,08,19,10,29,17.30
2010,08,19,10,30,17.30
2010,08,19,10,31,17.30
2010,08,19,10,32,17.30
2010,08,19,10,33,17.30
2010,08,19,10,34,17.30
2010,08,19,10,35,17.30
2010,08,19,10,36,17.20
2010,08,19,10,37,17.20
2010,08,19,10,38,17.30
2010,08,19,10,39,17.30
2010,08,19,10,40,17.20
2010,08,19,10,41,17.20
2010,08,19,10,42,17.20
2010,08,19,10,43,17.20
2010,08,19,10,44,17.20
2010,08,19,10,45,17.20
2010,08,19,10,46,17.20
2010,08,19,10,47,17.20
2010,08,19,10,48,17.20
2010,08,19,10,49,17.20
2010,08,19,10,50,17.20
2010,08,19,10,51,17.20
2010,08,19,10,52,17.20
2010,08,19,10,53,17.20
2010,08,19,10,54,17.20
2010,08,19,10,55,17.20
2010,08,19,10,56,17.20
2010,08,19,10,57,17.20
2010,08,19,10,58,17.30
2010,08,19,10,59,17.30
2010,08,19,11,00,17.30
2010,08,19,11,01,17.30
2010,08,19,11,02,17.30
2010,08,19,11,03,17.40
2010,08,19,11,04,17.40
2010,08,19,11,05,17.40
2010,08,19,11,06,17.50
2010,08,19,11,07,17.50
2010,08,19,11,08,17.60
2010,08,19,11,09,17.60
2010,08,19,11,10,17.70
2010,08,19,11,11,17.70
2010,08,19,11,12,17.80
2010,08,19,11,13,17.80
2010,08,19,11,14,17.80
2010,08,19,11,15,17.80
2010,08,19,11,16,17.90
2010,08,19,11,17,17.90
2010,08,19,11,18,17.90
2010,08,19,11,19,17.90
2010,08,19,11,20,17.90
2010,08,19,11,21,18.00
2010,08,19,11,22,18.00
2010,08,19,11,23,18.00
2010,08,19,11,24,18.10
2010,08,19,11,25,18.10
2010,08,19,11,26,18.10
2010,08,19,11,27,18.10
2010,08,19,11,28,18.10
2010,08,19,11,29,18.10
2010,08,19,11,30,18.10
2010,08,19,11,31,18.00
2010,08,19,11,32,18.00
2010,08,19,11,33,17.90
2010,08,19,11,34,17.90
2010,08,19,11,35,17.90
2010,08,19,11,36,18.00
2010,08,19,11,37,18.00
2010,08,19,11,38,18.00
2010,08,19,11,39,18.00
2010,08,19,11,40,18.00
2010,08,19,11,41,18.00
2010,08,19,11,42,18.00
2010,08,19,11,43,18.00
2010,08,19,11,44,18.00
2010,08,19,11,45,18.00
2010,08,19,11,46,18.10
2010,08,19,11,47,18.10
2010,08,19,11,48,18.20
2010,08,19,11,49,18.20
2010,08,19,11,50,18.20
2010,08,19,11,51,18.30
2010,08,19,11,52,18.30
2010,08,19,11,53,18.40
2010,08,19,11,54,18.50
2010,08,19,11,55,18.60
2010,08,19,11,56,18.70
2010,08,19,11,57,18.80
2010,08,19,11,58,18.90
2010,08,19,11,59,18.90
2010,08,19,12,00,19.00
2010,08,19,12,01,19.10
2010,08,19,12,02,19.10
2010,08,19,12,03,19.10
2010,08,19,12,04,19.10
2010,08,19,12,05,19.20
2010,08,19,12,06,19.30
2010,08,19,12,07,19.30
2010,08,19,12,08,19.40
2010,08,19,12,09,19.50
2010,08,19,12,10,19.50
2010,08,19,12,11,19.60
2010,08,19,12,12,19.60
2010,08,19,12,13,19.60
2010,08,19,12,14,19.60
2010,08,19,12,15,19.50
2010,08,19,12,16,19.40
2010,08,19,12,17,19.40
2010,08,19,12,18,19.30
2010,08,19,12,19,19.30
2010,08,19,12,20,19.20
2010,08,19,12,21,19.20
2010,08,19,12,22,19.20
2010,08,19,12,23,19.20
2010,08,19,12,24,19.30
2010,08,19,12,25,19.30
2010,08,19,12,26,19.40
2010,08,19,12,27,19.50
2010,08,19,12,28,19.60
2010,08,19,12,29,19.70
2010,08,19,12,30,19.70
2010,08,19,12,31,19.70
2010,08,19,12,32,19.80
2010,08,19,12,33,19.90
2010,08,19,12,34,19.90
2010,08,19,12,35,19.90
2010,08,19,12,36,19.90
2010,08,19,12,37,19.90
2010,08,19,12,38,19.90
2010,08,19,12,39,19.80
2010,08,19,12,40,19.80
2010,08,19,12,41,19.80
2010,08,19,12,42,19.80
2010,08,19,12,43,19.70
2010,08,19,12,44,19.60
2010,08,19,12,45,19.40
2010,08,19,12,46,19.30
2010,08,19,12,47,19.20
2010,08,19,12,48,19.10
2010,08,19,12,49,19.10
2010,08,19,12,50,19.10
2010,08,19,12,51,19.10
2010,08,19,12,52,19.10
2010,08,19,12,53,19.10
2010,08,19,12,54,19.20
2010,08,19,12,55,19.30
2010,08,19,12,56,19.30
2010,08,19,12,57,19.40
2010,08,19,12,58,19.40
2010,08,19,12,59,19.40
2010,08,19,13,00,19.40
2010,08,19,13,01,19.40
2010,08,19,13,02,19.30
2010,08,19,13,03,19.20
2010,08,19,13,04,19.20
2010,08,19,13,05,19.10
2010,08,19,13,06,19.00
2010,08,19,13,07,18.90
2010,08,19,13,08,18.90
2010,08,19,13,09,18.80
2010,08,19,13,10,18.80
2010,08,19,13,11,18.80
2010,08,19,13,12,18.80
2010,08,19,13,13,18.80
2010,08,19,13,14,18.80
2010,08,19,13,15,18.90
2010,08,19,13,16,19.00
2010,08,19,13,17,19.10
2010,08,19,13,18,19.20
2010,08,19,13,19,19.20
2010,08,19,13,20,19.20
2010,08,19,13,21,19.30
2010,08,19,13,22,19.30
2010,08,19,13,23,19.30
2010,08,19,13,24,19.40
2010,08,19,13,25,19.40
2010,08,19,13,26,19.50
2010,08,19,13,27,19.50
2010,08,19,13,28,19.50
2010,08,19,13,29,19.40
2010,08,19,13,30,19.40
2010,08,19,13,31,19.30
2010,08,19,13,32,19.30
2010,08,19,13,33,19.30
2010,08,19,13,34,19.30
2010,08,19,13,35,19.30
2010,08,19,13,36,19.30
2010,08,19,13,37,19.30
2010,08,19,13,38,19.30
2010,08,19,13,39,19.30
2010,08,19,13,40,19.30
2010,08,19,13,41,19.20
2010,08,19,13,42,19.20
2010,08,19,13,43,19.10
2010,08,19,13,44,19.10
2010,08,19,13,45,19.10
2010,08,19,13,46,19.10
2010,08,19,13,47,19.10
2010,08,19,13,48,19.20
2010,08,19,13,49,19.20
2010,08,19,13,50,19.10
2010,08,19,13,51,19.00
2010,08,19,13,52,19.00
2010,08,19,13,53,18.90
2010,08,19,13,54,18.90
2010,08,19,13,55,18.90
2010,08,19,13,56,18.90
2010,08,19,13,57,19.00
2010,08,19,13,58,19.10
2010,08,19,13,59,19.20
2010,08,19,14,00,19.20
2010,08,19,14,01,19.20
2010,08,19,14,02,19.20
2010,08,19,14,03,19.20
2010,08,19,14,04,19.20
2010,08,19,14,05,19.10
2010,08,19,14,06,19.10
2010,08,19,14,07,19.10
2010,08,19,14,08,19.10
2010,08,19,14,09,19.10
2010,08,19,14,10,19.10
2010,08,19,14,11,19.10
2010,08,19,14,12,19.10
2010,08,19,14,13,19.10
2010,08,19,14,14,19.10
2010,08,19,14,15,19.20
2010,08,19,14,16,19.20
2010,08,19,14,17,19.30
2010,08,19,14,18,19.40
2010,08,19,14,19,19.40
2010,08,19,14,20,19.40
2010,08,19,14,21,19.30
2010,08,19,14,22,19.30
2010,08,19,14,23,19.20
2010,08,19,14,24,19.20
2010,08,19,14,25,19.20
2010,08,19,14,26,19.20
2010,08,19,14,27,19.20
2010,08,19,14,28,19.30
2010,08,19,14,29,19.40
2010,08,19,14,30,19.40
2010,08,19,14,31,19.50
2010,08,19,14,32,19.50
2010,08,19,14,33,19.50
2010,08,19,14,34,19.40
2010,08,19,14,35,19.40
2010,08,19,14,36,19.30
2010,08,19,14,37,19.30
2010,08,19,14,38,19.30
2010,08,19,14,39,19.40
2010,08,19,14,40,19.40
2010,08,19,14,41,19.50
2010,08,19,14,42,19.50
2010,08,19,14,43,19.60
2010,08,19,14,44,19.70
2010,08,19,14,45,19.70
2010,08,19,14,46,19.80
2010,08,19,14,47,19.80
2010,08,19,14,48,19.80
2010,08,19,14,49,19.90
2010,08,19,14,50,20.00
2010,08,19,14,51,20.10
2010,08,19,14,52,20.20
2010,08,19,14,53,20.20
2010,08,19,14,54,20.30
2010,08,19,14,55,20.30
2010,08,19,14,56,20.20
2010,08,19,14,57,20.30
2010,08,19,14,58,20.40
2010,08,19,14,59,20.40
2010,08,19,15,00,20.40
2010,08,19,15,01,20.40
2010,08,19,15,02,20.40
2010,08,19,15,03,20.40
2010,08,19,15,04,20.40
2010,08,19,15,05,20.40
2010,08,19,15,06,20.40
2010,08,19,15,07,20.40
2010,08,19,15,08,20.40
2010,08,19,15,09,20.40
2010,08,19,15,10,20.30
2010,08,19,15,11,20.30
2010,08,19,15,12,20.30
2010,08,19,15,13,20.30
2010,08,19,15,14,20.20
2010,08,19,15,15,20.20
2010,08,19,15,16,20.20
2010,08,19,15,17,20.20
2010,08,19,15,18,20.20
2010,08,19,15,19,20.20
2010,08,19,15,20,20.20
2010,08,19,15,21,20.30
2010,08,19,15,22,20.30
2010,08,19,15,23,20.40
2010,08,19,15,24,20.40
2010,08,19,15,25,20.50
2010,08,19,15,26,20.60
2010,08,19,15,27,20.70
2010,08,19,15,28,20.70
2010,08,19,15,29,20.70
2010,08,19,15,30,20.70
2010,08,19,15,31,20.80
2010,08,19,15,32,20.80
2010,08,19,15,33,20.90
2010,08,19,15,34,21.00
2010,08,19,15,35,21.00
2010,08,19,15,36,21.10
2010,08,19,15,37,21.10
2010,08,19,15,38,21.20
2010,08,19,15,39,21.20
2010,08,19,15,40,21.30
2010,08,19,15,41,21.30
2010,08,19,15,42,21.30
2010,08,19,15,43,21.20
2010,08,19,15,44,21.10
2010,08,19,15,45,21.10
2010,08,19,15,46,21.00
2010,08,19,15,47,20.90
2010,08,19,15,48,20.90
2010,08,19,15,49,20.90
2010,08,19,15,50,20.90
2010,08,19,15,51,20.90
2010,08,19,15,52,20.90
2010,08,19,15,53,20.90
2010,08,19,15,54,20.90
2010,08,19,15,55,21.00
2010,08,19,15,56,20.90
2010,08,19,15,57,20.90
2010,08,19,15,58,20.90
2010,08,19,15,59,20.90
2010,08,19,16,00,20.90
2010,08,19,16,01,20.90
2010,08,19,16,02,20.90
2010,08,19,16,03,20.90
2010,08,19,16,04,21.00
2010,08,19,16,05,21.00
2010,08,19,16,06,21.00
2010,08,19,16,07,20.90
2010,08,19,16,08,20.90
2010,08,19,16,09,20.80
2010,08,19,16,10,20.90
2010,08,19,16,11,20.90
2010,08,19,16,12,21.00
2010,08,19,16,13,21.00
2010,08,19,16,14,21.10
2010,08,19,16,15,21.10
2010,08,19,16,16,21.00
2010,08,19,16,17,21.00
2010,08,19,16,18,21.00
2010,08,19,16,19,21.10
2010,08,19,16,20,21.10
2010,08,19,16,21,21.10
2010,08,19,16,22,21.10
2010,08,19,16,23,21.10
2010,08,19,16,24,21.10
2010,08,19,16,25,21.10
2010,08,19,16,26,21.00
2010,08,19,16,27,21.00
2010,08,19,16,28,21.00
2010,08,19,16,29,21.00
2010,08,19,16,30,21.00
2010,08,19,16,31,21.00
2010,08,19,16,32,21.10
2010,08,19,16,33,21.10
2010,08,19,16,34,21.10
2010,08,19,16,35,21.20
2010,08,19,16,36,21.20
2010,08,19,16,37,21.20
2010,08,19,16,38,21.20
2010,08,19,16,39,21.20
2010,08,19,16,40,21.20
2010,08,19,16,41,21.30
2010,08,19,16,42,21.30
2010,08,19,16,43,21.40
2010,08,19,16,44,21.50
2010,08,19,16,45,21.60
2010,08,19,16,46,21.70
2010,08,19,16,47,21.80
2010,08,19,16,48,21.80
2010,08,19,16,49,21.90
2010,08,19,16,50,21.90
2010,08,19,16,51,22.00
2010,08,19,16,52,22.00
2010,08,19,16,53,22.00
2010,08,19,16,54,21.90
2010,08,19,16,55,22.00
2010,08,19,16,56,22.00
2010,08,19,16,57,22.10
2010,08,19,16,58,22.10
2010,08,19,16,59,22.10
2010,08,19,17,00,22.20
2010,08,19,17,01,22.30
2010,08,19,17,02,22.30
2010,08,19,17,03,22.30
2010,08,19,17,04,22.30
2010,08,19,17,05,22.20
2010,08,19,17,06,22.20
2010,08,19,17,07,22.20
2010,08,19,17,08,22.20
2010,08,19,17,09,22.30
2010,08,19,17,10,22.30
2010,08,19,17,11,22.10
2010,08,19,17,12,22.00
2010,08,19,17,13,21.80
2010,08,19,17,14,21.80
2010,08,19,17,15,21.70
2010,08,19,17,16,21.70
2010,08,19,17,17,21.70
2010,08,19,17,18,21.70
2010,08,19,17,19,21.70